Find Starlink 32320

NORAD ID: 61638 Int'l Des: 2024-191 Owner: SPXS Country: US Constellation: starlink operational
LEOCIRCULAR

实时位置

正在加载3D地球...

关于 Starlink 32320

正在加载描述...

即将过境

Passes for default location (London). Set your location on the main map for personalized predictions.

高度历史

Loading altitude history...

两行轨道根数

1 61638U 24191T 26124.28252714 -.00020494 00000-0 -73845-3 0 9998
2 61638 43.0006 204.4378 0001113 219.7011 140.3760 15.27528443 85997
Epoch: May 4, 2026 • Age: 27 hours

当前状态

高度 483.0 km
速度 7.63 km/s
星下点 -3.27°S, 4.2°E
发射日期 Oct 23, 2024
运行时间 1.5 years
类型 internet

技术详情

分类 Payload
质量 730.00 kg
干质量 700.00 kg
总质量 730.00 kg
长度 0.30 m
直径 4.10 m
跨度 29.00 m
形状 Box + pan
制造商 SPXS
平台类型 Starlink V2M
阶段状态 In Orbit
所有者/国家 SPXS/US

Most Searched